Weather History for PAAQ - February, 2013

Change the Weather History Date:

Sunday, February 17, 2013

  Actual Average Record
Temperature  
Mean Temperature 22 °F -  
Max Temperature 26 °F 25 °F 44 °F (2015)
Min Temperature 17 °F 8 °F -20 °F (1964)
Degree Days  
Heating Degree Days 44    
Moisture  
Dew Point 17 °F    
Average Humidity 82    
Maximum Humidity 93    
Minimum Humidity 60    
Precipitation  
Precipitation 0.04 in - - ()
Sea Level Pressure  
Sea Level Pressure 29.64 in    
Wind  
Wind Speed 5 mph (SW)    
Max Wind Speed 14 mph    
Max Gust Speed 21 mph    
Visibility 7 miles    
Events Snow    
Averages and records for this station are not official NWS values.
T = Trace of Precipitation, MM = Missing Value Source: NWS Daily Summary

Daily Weather History Graph

Daily Weather History Graph

Search for Another Location

Airport or City:

Trip Planner

Search our weather history database for the weather conditions in past years. The results will help you decide how hot, cold, wet, or windy it might be!

Date:

Astronomy

Feb. 17, 2013 Rise Set
Actual Time 8:33 AM AKST 5:48 PM AKST
Civil Twilight 7:47 AM AKST 6:34 PM AKST
Nautical Twilight 6:56 AM AKST 7:25 PM AKST
Astronomical Twilight 6:05 AM AKST 8:16 PM AKST
Moon 10:11 AM AKST (2/17) 3:11 AM AKST (2/17)
Length of Visible Light 10h 47m
Length of Day
9h 15m
Waxing Crescent, 50% of the Moon is Illuminated
Feb 17
Waxing Crescent
Feb 25
Full
Mar 4
Last Quarter
Mar 11
New
Mar 19
First Quarter

Hourly Weather History & Observations

Time (AKST) Temp. Windchill Dew Point Humidity Pressure Visibility Wind Dir Wind Speed Gust Speed Precip Events Conditions
12:53 AM 23.0 °F 10.6 °F 12.0 °F 63% 29.77 in 10.0 mi North 13.8 mph 20.7 mph N/A   Overcast
1:53 AM 24.1 °F 16.0 °F 12.0 °F 60% 29.74 in 10.0 mi NNW 6.9 mph - N/A   Overcast
3:53 AM 21.9 °F 17.2 °F 17.1 °F 82% 29.71 in 10.0 mi ENE 3.5 mph - N/A   Overcast
4:53 AM 19.9 °F - 17.1 °F 89% 29.68 in 10.0 mi Calm Calm - N/A   Overcast
5:53 AM 25.0 °F 18.1 °F 15.1 °F 66% 29.66 in 10.0 mi North 5.8 mph - N/A   Overcast
6:53 AM 26.1 °F 19.4 °F 14.0 °F 60% 29.64 in 10.0 mi NNE 5.8 mph - N/A   Overcast
7:53 AM 19.9 °F 14.9 °F 17.1 °F 89% 29.63 in 10.0 mi South 3.5 mph - N/A   Overcast
8:53 AM 19.0 °F - 16.0 °F 88% 29.62 in 10.0 mi Calm Calm - N/A   Overcast
9:53 AM 19.0 °F - 16.0 °F 88% 29.60 in 10.0 mi Calm Calm - N/A   Overcast
10:53 AM 19.9 °F - 17.1 °F 89% 29.60 in 10.0 mi Calm Calm - N/A   Overcast
11:53 AM 21.0 °F - 17.1 °F 85% 29.59 in 10.0 mi Calm Calm - N/A   Overcast
12:53 PM 21.9 °F 17.2 °F 17.1 °F 82% 29.59 in 10.0 mi SSW 3.5 mph - N/A   Overcast
1:53 PM 23.0 °F - 18.0 °F 81% 29.59 in 10.0 mi Calm Calm - N/A   Overcast
2:53 PM 23.0 °F 18.4 °F 18.0 °F 81% 29.57 in 10.0 mi Variable 3.5 mph - N/A   Overcast
3:53 PM 24.1 °F 19.7 °F 19.0 °F 81% 29.57 in 10.0 mi SW 3.5 mph - N/A   Overcast
4:53 PM 24.1 °F - 19.9 °F 84% 29.58 in 10.0 mi Calm Calm - N/A   Overcast
5:53 PM 23.0 °F - 19.0 °F 85% 29.59 in 10.0 mi Calm Calm - N/A   Overcast
6:53 PM 24.1 °F 19.7 °F 19.9 °F 84% 29.59 in 10.0 mi ESE 3.5 mph - N/A   Overcast
7:53 PM 24.1 °F - 21.0 °F 88% 29.61 in 10.0 mi Calm Calm - N/A   Overcast
8:51 PM 24.8 °F - 21.2 °F 86% 29.62 in 4.0 mi Calm Calm - 0.00 in Snow Light Snow
8:53 PM 25.0 °F - 21.0 °F 85% 29.64 in 4.0 mi Calm Calm - 0.00 in Snow Light Snow
9:07 PM 24.8 °F 17.9 °F 21.2 °F 86% 29.62 in 2.0 mi WSW 5.8 mph - 0.00 in Snow Light Snow
9:13 PM 24.8 °F 16.9 °F 21.2 °F 86% 29.62 in 1.8 mi WSW 6.9 mph - 0.00 in Snow Light Snow
9:53 PM 21.9 °F 13.4 °F 18.0 °F 85% 29.67 in 1.8 mi WSW 6.9 mph - 0.01 in Snow Light Snow
10:53 PM 19.9 °F 8.6 °F 17.1 °F 89% 29.71 in 1.2 mi SW 10.4 mph - 0.00 in Snow Light Snow
11:29 PM 19.4 °F 11.5 °F 15.8 °F 86% 29.71 in 0.8 mi SW 5.8 mph - 0.02 in Snow Light Snow
11:43 PM 17.6 °F 8.2 °F 15.8 °F 93% 29.73 in 1.0 mi SW 6.9 mph - 0.03 in Snow Light Snow
11:53 PM 18.0 °F 8.7 °F 15.1 °F 88% 29.75 in 1.2 mi SW 6.9 mph - 0.03 in Snow Light Snow